Time,TemperatureF,DewpointF,PressureIn,WindDirection,WindDirectionDegrees,WindSpeedMPH,WindSpeedGustMPH,Humidity,HourlyPrecipIn,Conditions,Clouds,dailyrainin,SoftwareType,DateUTC
2013-03-02 00:14:00,12.8,10.2,30.22,North,-999,0.0,-999.0,89,-99.99,,,-99.99,Acu-Link.com,2013-03-02 06:14:00,
2013-03-02 00:29:00,12.4,10.0,30.21,North,-999,0.0,-999.0,90,-99.99,,,-99.99,Acu-Link.com,2013-03-02 06:29:00,
2013-03-02 00:44:00,12.2,10.3,30.21,North,-999,0.0,-999.0,92,-99.99,,,-99.99,Acu-Link.com,2013-03-02 06:44:00,
2013-03-02 00:59:00,12.1,10.2,30.21,North,-999,0.0,-999.0,92,-99.99,,,-99.99,Acu-Link.com,2013-03-02 06:59:00,
2013-03-02 01:14:00,12.8,11.2,30.22,North,-999,0.0,-999.0,93,-99.99,,,-99.99,Acu-Link.com,2013-03-02 07:14:00,
2013-03-02 01:30:00,12.7,11.1,30.22,North,-999,0.0,-999.0,93,-99.99,,,-99.99,Acu-Link.com,2013-03-02 07:30:00,
2013-03-02 01:45:00,12.5,10.9,30.22,North,-999,0.0,-999.0,93,-99.99,,,-99.99,Acu-Link.com,2013-03-02 07:45:00,
2013-03-02 02:01:00,12.2,10.6,30.22,North,-999,0.0,-999.0,93,-99.99,,,-99.99,Acu-Link.com,2013-03-02 08:01:00,
2013-03-02 02:16:00,11.7,10.1,30.21,North,-999,0.0,-999.0,93,-99.99,,,-99.99,Acu-Link.com,2013-03-02 08:16:00,
2013-03-02 02:31:00,11.2,9.3,30.22,North,-999,0.0,-999.0,92,-99.99,,,-99.99,Acu-Link.com,2013-03-02 08:31:00,
2013-03-02 02:47:00,10.3,8.4,30.21,North,-999,0.0,-999.0,92,-99.99,,,-99.99,Acu-Link.com,2013-03-02 08:47:00,
2013-03-02 03:18:00,11.3,9.9,30.22,North,-999,0.0,-999.0,94,-99.99,,,-99.99,Acu-Link.com,2013-03-02 09:18:00,
2013-03-02 03:34:00,10.8,9.2,30.21,North,-999,0.0,-999.0,93,-99.99,,,-99.99,Acu-Link.com,2013-03-02 09:34:00,
2013-03-02 03:49:00,10.2,8.3,30.21,North,-999,0.0,-999.0,92,-99.99,,,-99.99,Acu-Link.com,2013-03-02 09:49:00,
2013-03-02 04:04:00,10.2,8.6,30.21,North,-999,0.0,-999.0,93,-99.99,,,-99.99,Acu-Link.com,2013-03-02 10:04:00,
2013-03-02 04:19:00,10.1,8.2,30.21,North,-999,0.0,-999.0,92,-99.99,,,-99.99,Acu-Link.com,2013-03-02 10:19:00,
2013-03-02 04:35:00,10.3,8.7,30.22,North,-999,0.0,-999.0,93,-99.99,,,-99.99,Acu-Link.com,2013-03-02 10:35:00,
2013-03-02 04:50:00,10.4,8.8,30.21,North,-999,0.0,-999.0,93,-99.99,,,-99.99,Acu-Link.com,2013-03-02 10:50:00,
2013-03-02 05:05:00,10.0,8.1,30.22,North,-999,0.0,-999.0,92,-99.99,,,-99.99,Acu-Link.com,2013-03-02 11:05:00,
2013-03-02 05:21:00,9.9,8.1,30.22,North,-999,0.0,-999.0,92,-99.99,,,-99.99,Acu-Link.com,2013-03-02 11:21:00,
2013-03-02 05:37:00,9.9,8.1,30.23,North,-999,0.0,-999.0,92,-99.99,,,-99.99,Acu-Link.com,2013-03-02 11:37:00,
2013-03-02 05:52:00,10.1,8.2,30.23,North,-999,0.0,-999.0,92,-99.99,,,-99.99,Acu-Link.com,2013-03-02 11:52:00,
2013-03-02 06:07:00,9.9,8.1,30.22,North,-999,0.0,-999.0,92,-99.99,,,-99.99,Acu-Link.com,2013-03-02 12:07:00,
2013-03-02 06:22:00,9.3,7.5,30.22,North,-999,0.0,-999.0,92,-99.99,,,-99.99,Acu-Link.com,2013-03-02 12:22:00,
2013-03-02 06:38:00,9.4,7.6,30.21,North,-999,0.0,-999.0,92,-99.99,,,-99.99,Acu-Link.com,2013-03-02 12:38:00,
2013-03-02 06:53:00,10.8,9.4,30.22,North,-999,0.0,-999.0,94,-99.99,,,-99.99,Acu-Link.com,2013-03-02 12:53:00,
2013-03-02 07:08:00,12.0,10.6,30.22,North,-999,1.6,-999.0,94,-99.99,,,-99.99,Acu-Link.com,2013-03-02 13:08:00,
2013-03-02 07:24:00,13.5,11.9,30.23,North,-999,1.6,-999.0,93,-99.99,,,-99.99,Acu-Link.com,2013-03-02 13:24:00,
2013-03-02 07:39:00,14.5,12.1,30.22,North,-999,1.6,-999.0,90,-99.99,,,-99.99,Acu-Link.com,2013-03-02 13:39:00,
2013-03-02 07:54:00,16.0,13.3,30.21,North,-999,0.0,-999.0,89,-99.99,,,-99.99,Acu-Link.com,2013-03-02 13:54:00,
2013-03-02 08:10:00,22.8,19.0,30.21,North,-999,0.0,-999.0,85,-99.99,,,-99.99,Acu-Link.com,2013-03-02 14:10:00,
2013-03-02 08:25:00,23.7,19.6,30.20,North,-999,0.0,-999.0,84,-99.99,,,-99.99,Acu-Link.com,2013-03-02 14:25:00,
2013-03-02 08:40:00,22.3,18.2,30.20,North,-999,0.0,-999.0,84,-99.99,,,-99.99,Acu-Link.com,2013-03-02 14:40:00,
2013-03-02 08:55:00,27.6,20.7,30.21,North,-999,1.6,-999.0,75,-99.99,,,-99.99,Acu-Link.com,2013-03-02 14:55:00,
2013-03-02 09:11:00,27.2,19.7,30.21,North,-999,1.6,-999.0,73,-99.99,,,-99.99,Acu-Link.com,2013-03-02 15:11:00,
2013-03-02 09:26:00,30.8,21.9,30.20,North,-999,1.6,-999.0,69,-99.99,,,-99.99,Acu-Link.com,2013-03-02 15:26:00,
2013-03-02 09:41:00,28.8,21.6,30.19,North,-999,0.0,-999.0,74,-99.99,,,-99.99,Acu-Link.com,2013-03-02 15:41:00,
2013-03-02 09:57:00,32.5,22.4,30.20,North,-999,0.0,-999.0,66,-99.99,,,-99.99,Acu-Link.com,2013-03-02 15:57:00,
2013-03-02 10:12:00,29.7,21.1,30.19,North,-999,1.6,-999.0,70,-99.99,,,-99.99,Acu-Link.com,2013-03-02 16:12:00,
2013-03-02 10:27:00,29.0,19.1,30.18,North,-999,4.8,-999.0,66,-99.99,,,-99.99,Acu-Link.com,2013-03-02 16:27:00,
2013-03-02 10:43:00,35.3,22.4,30.19,North,-999,1.6,-999.0,59,-99.99,,,-99.99,Acu-Link.com,2013-03-02 16:43:00,
2013-03-02 10:58:00,34.8,21.5,30.17,North,-999,1.6,-999.0,58,-99.99,,,-99.99,Acu-Link.com,2013-03-02 16:58:00,
2013-03-02 11:13:00,35.7,23.6,30.16,North,-999,3.2,-999.0,61,-99.99,,,-99.99,Acu-Link.com,2013-03-02 17:13:00,
2013-03-02 11:28:00,35.4,22.5,30.16,North,-999,4.8,-999.0,59,-99.99,,,-99.99,Acu-Link.com,2013-03-02 17:28:00,
2013-03-02 11:44:00,34.9,21.2,30.16,North,-999,3.2,-999.0,57,-99.99,,,-99.99,Acu-Link.com,2013-03-02 17:44:00,
2013-03-02 11:59:00,37.8,22.2,30.16,North,-999,3.2,-999.0,53,-99.99,,,-99.99,Acu-Link.com,2013-03-02 17:59:00,
2013-03-02 12:14:00,37.4,22.7,30.15,North,-999,3.2,-999.0,55,-99.99,,,-99.99,Acu-Link.com,2013-03-02 18:14:00,
2013-03-02 12:29:00,35.1,21.0,30.14,North,-999,1.6,-999.0,56,-99.99,,,-99.99,Acu-Link.com,2013-03-02 18:29:00,
2013-03-02 12:45:00,36.1,22.4,30.12,North,-999,8.0,-999.0,57,-99.99,,,-99.99,Acu-Link.com,2013-03-02 18:45:00,
2013-03-02 13:00:00,38.0,21.5,30.11,North,-999,8.0,-999.0,51,-99.99,,,-99.99,Acu-Link.com,2013-03-02 19:00:00,
2013-03-02 13:15:00,36.7,22.1,30.10,North,-999,4.8,-999.0,55,-99.99,,,-99.99,Acu-Link.com,2013-03-02 19:15:00,
2013-03-02 13:30:00,37.9,23.6,30.09,North,-999,3.2,-999.0,56,-99.99,,,-99.99,Acu-Link.com,2013-03-02 19:30:00,
2013-03-02 13:46:00,37.8,21.3,30.09,North,-999,9.6,-999.0,51,-99.99,,,-99.99,Acu-Link.com,2013-03-02 19:46:00,
2013-03-02 14:01:00,40.7,23.0,30.08,North,-999,4.8,-999.0,49,-99.99,,,-99.99,Acu-Link.com,2013-03-02 20:01:00,
2013-03-02 14:16:00,41.8,22.6,30.07,North,-999,4.8,-999.0,46,-99.99,,,-99.99,Acu-Link.com,2013-03-02 20:16:00,
2013-03-02 14:31:00,40.2,23.5,30.06,North,-999,4.8,-999.0,51,-99.99,,,-99.99,Acu-Link.com,2013-03-02 20:31:00,
2013-03-02 14:47:00,39.7,22.6,30.06,North,-999,8.0,-999.0,50,-99.99,,,-99.99,Acu-Link.com,2013-03-02 20:47:00,
2013-03-02 15:03:00,40.5,22.4,30.06,North,-999,4.8,-999.0,48,-99.99,,,-99.99,Acu-Link.com,2013-03-02 21:03:00,
2013-03-02 15:18:00,40.5,23.3,30.04,North,-999,3.2,-999.0,50,-99.99,,,-99.99,Acu-Link.com,2013-03-02 21:18:00,
2013-03-02 15:33:00,39.8,22.7,30.05,North,-999,4.8,-999.0,50,-99.99,,,-99.99,Acu-Link.com,2013-03-02 21:33:00,
2013-03-02 15:49:00,41.3,24.1,30.05,North,-999,3.2,-999.0,50,-99.99,,,-99.99,Acu-Link.com,2013-03-02 21:49:00,
2013-03-02 16:04:00,42.2,24.9,30.05,North,-999,4.8,-999.0,50,-99.99,,,-99.99,Acu-Link.com,2013-03-02 22:04:00,
2013-03-02 16:19:00,40.5,24.7,30.05,North,-999,1.6,-999.0,53,-99.99,,,-99.99,Acu-Link.com,2013-03-02 22:19:00,
2013-03-02 16:34:00,40.3,24.1,30.04,North,-999,11.2,-999.0,52,-99.99,,,-99.99,Acu-Link.com,2013-03-02 22:34:00,
2013-03-02 16:49:00,39.8,25.4,30.03,North,-999,4.8,-999.0,56,-99.99,,,-99.99,Acu-Link.com,2013-03-02 22:49:00,
2013-03-02 17:04:00,39.1,25.2,30.02,North,-999,1.6,-999.0,57,-99.99,,,-99.99,Acu-Link.com,2013-03-02 23:04:00,
2013-03-02 17:19:00,38.9,25.8,30.03,North,-999,3.2,-999.0,59,-99.99,,,-99.99,Acu-Link.com,2013-03-02 23:19:00,
2013-03-02 17:34:00,38.2,25.2,30.03,North,-999,3.2,-999.0,59,-99.99,,,-99.99,Acu-Link.com,2013-03-02 23:34:00,
2013-03-02 17:49:00,37.2,25.4,30.02,North,-999,1.6,-999.0,62,-99.99,,,-99.99,Acu-Link.com,2013-03-02 23:49:00,
2013-03-02 18:05:00,36.7,25.3,30.02,North,-999,3.2,-999.0,63,-99.99,,,-99.99,Acu-Link.com,2013-03-03 00:05:00,
2013-03-02 18:20:00,36.1,25.1,30.02,North,-999,3.2,-999.0,64,-99.99,,,-99.99,Acu-Link.com,2013-03-03 00:20:00,
2013-03-02 18:35:00,35.2,25.0,30.02,North,-999,0.0,-999.0,66,-99.99,,,-99.99,Acu-Link.com,2013-03-03 00:35:00,
2013-03-02 18:51:00,32.9,24.9,30.02,North,-999,0.0,-999.0,72,-99.99,,,-99.99,Acu-Link.com,2013-03-03 00:51:00,
2013-03-02 19:07:00,33.4,25.4,30.02,North,-999,0.0,-999.0,72,-99.99,,,-99.99,Acu-Link.com,2013-03-03 01:07:00,
2013-03-02 19:22:00,32.7,25.0,30.02,North,-999,1.6,-999.0,73,-99.99,,,-99.99,Acu-Link.com,2013-03-03 01:22:00,
2013-03-02 19:37:00,33.7,25.7,30.02,North,-999,4.8,-999.0,72,-99.99,,,-99.99,Acu-Link.com,2013-03-03 01:37:00,
2013-03-02 19:52:00,33.4,26.0,30.00,North,-999,4.8,-999.0,74,-99.99,,,-99.99,Acu-Link.com,2013-03-03 01:52:00,
2013-03-02 20:08:00,33.8,26.1,30.00,North,-999,4.8,-999.0,73,-99.99,,,-99.99,Acu-Link.com,2013-03-03 02:08:00,
2013-03-02 20:23:00,33.8,26.1,30.00,North,-999,3.2,-999.0,73,-99.99,,,-99.99,Acu-Link.com,2013-03-03 02:23:00,
2013-03-02 20:38:00,33.6,25.9,30.00,North,-999,3.2,-999.0,73,-99.99,,,-99.99,Acu-Link.com,2013-03-03 02:38:00,
2013-03-02 20:53:00,33.3,25.6,29.99,North,-999,3.2,-999.0,73,-99.99,,,-99.99,Acu-Link.com,2013-03-03 02:53:00,
2013-03-02 21:09:00,32.9,25.2,29.99,North,-999,1.6,-999.0,73,-99.99,,,-99.99,Acu-Link.com,2013-03-03 03:09:00,
2013-03-02 21:24:00,32.5,25.2,29.97,North,-999,3.2,-999.0,74,-99.99,,,-99.99,Acu-Link.com,2013-03-03 03:24:00,
2013-03-02 21:39:00,32.0,25.0,29.97,North,-999,4.8,-999.0,75,-99.99,,,-99.99,Acu-Link.com,2013-03-03 03:39:00,
2013-03-02 21:54:00,31.6,24.6,29.96,North,-999,1.6,-999.0,75,-99.99,,,-99.99,Acu-Link.com,2013-03-03 03:54:00,
2013-03-02 22:10:00,31.5,24.2,29.96,North,-999,3.2,-999.0,74,-99.99,,,-99.99,Acu-Link.com,2013-03-03 04:10:00,
2013-03-02 22:25:00,31.3,24.3,29.96,North,-999,3.2,-999.0,75,-99.99,,,-99.99,Acu-Link.com,2013-03-03 04:25:00,
2013-03-02 22:40:00,30.7,24.4,29.95,North,-999,1.6,-999.0,77,-99.99,,,-99.99,Acu-Link.com,2013-03-03 04:40:00,
2013-03-02 22:56:00,30.6,24.6,29.95,North,-999,0.0,-999.0,78,-99.99,,,-99.99,Acu-Link.com,2013-03-03 04:56:00,
2013-03-02 23:11:00,30.3,24.6,29.94,North,-999,0.0,-999.0,79,-99.99,,,-99.99,Acu-Link.com,2013-03-03 05:11:00,
2013-03-02 23:26:00,29.8,24.7,29.93,North,-999,0.0,-999.0,81,-99.99,,,-99.99,Acu-Link.com,2013-03-03 05:26:00,
2013-03-02 23:42:00,29.7,24.6,29.93,North,-999,1.6,-999.0,81,-99.99,,,-99.99,Acu-Link.com,2013-03-03 05:42:00,
2013-03-02 23:57:00,29.7,25.5,29.93,North,-999,1.6,-999.0,84,-99.99,,,-99.99,Acu-Link.com,2013-03-03 05:57:00,